INSAT-3D

Last updated on Fri Apr 18 2025 00:02:18 GMT+0000 (Coordinated Universal Time)

1 39216U 13038B 25107.55969678 -.00000329 00000+0 00000+0 0 9999 2 39216 0.8232 88.2484 0001643 249.4903 199.1556 1.00277201 42818
UTC large
Height (km)
Speed (km/s)
/
Latitude / Longitude
Inclination (degrees)
Orbital Period (minutes)
Azimuth
Elevation
Range (km)
Doppler Factor

Next 0 passes for location: London (51.5072 / 0.1276)

Sorry there are no passes over London.